| time (UTC) | temp C | wind direction | speed KPH | gust KPH | rain 1hr cm | rain 24hr cm | rain mn cm | humidity % | barometer mb |
| 20260831000703 | 36 | 233 | 1.6 | 1.6 | 0.00 | 0.00 | 0.00 | 43 | 1013.1 |
| 20260830233701 | 36 | 94 | 3.2 | 3.2 | 0.00 | 0.00 | 0.00 | 41 | 1013.1 |
| 20260830230701 | 37 | 155 | 4.8 | 4.8 | 0.00 | 0.00 | 0.00 | 40 | 1013.2 |
| 20260830223701 | 36 | 199 | 3.2 | 3.2 | 0.00 | 0.00 | 0.00 | 39 | 1013.2 |
| 20260830220656 | 38 | 152 | 11.3 | 14.5 | 0.00 | 0.00 | 0.00 | 36 | 1013.4 |
| 20260830213655 | 37 | 216 | 12.9 | 14.5 | 0.00 | 0.00 | 0.00 | 36 | 1013.5 |
| 20260830210655 | 37 | 240 | 1.6 | 3.2 | 0.00 | 0.00 | 0.00 | 38 | 1013.8 |
| 20260830203653 | 38 | 293 | 3.2 | 4.8 | 0.00 | 0.00 | 0.00 | 37 | 1014.1 |
| 20260830200651 | 38 | 299 | 0.0 | 1.6 | 0.00 | 0.00 | 0.00 | 39 | 1014.5 |
| 20260830193650 | 37 | 120 | 4.8 | 4.8 | 0.00 | 0.00 | 0.00 | 40 | 1015.0 |
| 20260830190650 | 37 | 188 | 6.4 | 9.7 | 0.00 | 0.00 | 0.00 | 41 | 1015.4 |
| 20260830183650 | 37 | 114 | 6.4 | 9.7 | 0.00 | 0.00 | 0.00 | 41 | 1015.9 |
| 20260830180649 | 37 | 129 | 4.8 | 9.7 | 0.00 | 0.00 | 0.00 | 44 | 1016.2 |
| 20260830173647 | 36 | 284 | 1.6 | 1.6 | 0.00 | 0.00 | 0.00 | 46 | 1016.5 |
| 20260830170643 | 36 | 186 | 4.8 | 8.0 | 0.00 | 0.00 | 0.00 | 48 | 1017.3 |
| 20260830163639 | 34 | 191 | 4.8 | 8.0 | 0.00 | 0.00 | 0.00 | 54 | 1017.5 |
| 20260830160639 | 33 | 149 | 9.7 | 14.5 | 0.00 | 0.00 | 0.00 | 57 | 1017.4 |
| 20260830153636 | 32 | 293 | 0.0 | 0.0 | 0.00 | 0.00 | 0.00 | 64 | 1017.4 |
| 20260830150636 | 31 | 295 | 0.0 | 1.6 | 0.00 | 0.00 | 0.00 | 67 | 1017.3 |
| 20260830143630 | 30 | 199 | 1.6 | 1.6 | 0.00 | 0.00 | 0.00 | 70 | 1017.4 |
| 20260830140627 | 30 | 288 | 0.0 | 0.0 | 0.00 | 0.00 | 0.00 | 71 | 1017.7 |
| 20260830133627 | 28 | 205 | 0.0 | 1.6 | 0.00 | 0.00 | 0.00 | 73 | 1017.4 |
| 20260830130626 | 27 | 194 | 1.6 | 1.6 | 0.00 | 0.00 | 0.00 | 75 | 1017.1 |
| 20260830123622 | 26 | 227 | 0.0 | 0.0 | 0.00 | 0.00 | 0.00 | 76 | 1016.8 |
| 20260830120617 | 26 | 221 | 1.6 | 1.6 | 0.00 | 0.00 | 0.00 | 77 | 1016.5 |
| 20260830113614 | 26 | 181 | 1.6 | 1.6 | 0.00 | 0.00 | 0.00 | 75 | 1016.2 |
| 20260830110610 | 26 | 215 | 0.0 | 0.0 | 0.00 | 0.00 | 0.00 | 73 | 1015.8 |
| 20260830103606 | 27 | 254 | 0.0 | 1.6 | 0.00 | 0.00 | 0.00 | 70 | 1015.6 |
| 20260830100602 | 26 | 242 | 0.0 | 0.0 | 0.00 | 0.00 | 0.00 | 69 | 1015.7 |
| 20260830093602 | 26 | 269 | 0.0 | 0.0 | 0.00 | 0.00 | 0.00 | 68 | 1015.4 |
| 20260830090603 | 27 | 297 | 0.0 | 0.0 | 0.00 | 0.00 | 0.00 | 65 | 1015.5 |
| 20260830083603 | 27 | 296 | 0.0 | 0.0 | 0.00 | 0.00 | 0.00 | 63 | 1015.6 |
| 20260830080600 | 28 | 258 | 0.0 | 1.6 | 0.00 | 0.00 | 0.00 | 60 | 1015.5 |
| 20260830073555 | 28 | 278 | 0.0 | 0.0 | 0.00 | 0.00 | 0.00 | 59 | 1015.4 |
| 20260830070551 | 30 | 142 | 0.0 | 0.0 | 0.00 | 0.00 | 0.00 | 57 | 1015.7 |
| 20260830063551 | 30 | 227 | 1.6 | 1.6 | 0.00 | 0.00 | 0.00 | 56 | 1015.6 |
| 20260830060549 | 29 | 3 | 1.6 | 1.6 | 0.00 | 0.00 | 0.00 | 55 | 1015.8 |
| 20260830053546 | 29 | 240 | 0.0 | 0.0 | 0.00 | 0.00 | 0.00 | 57 | 1015.5 |
| 20260830050544 | 30 | 241 | 0.0 | 0.0 | 0.00 | 0.00 | 0.00 | 53 | 1015.3 |
| 20260830043540 | 30 | 281 | 0.0 | 0.0 | 0.00 | 0.00 | 0.00 | 52 | 1015.5 |
| 20260830040538 | 32 | 215 | 0.0 | 1.6 | 0.00 | 0.00 | 0.00 | 48 | 1015.3 |
| 20260830033534 | 32 | 178 | 0.0 | 0.0 | 0.00 | 0.00 | 0.00 | 47 | 1015.3 |
| 20260830030533 | 32 | 206 | 3.2 | 4.8 | 0.00 | 0.00 | 0.00 | 46 | 1015.1 |
| 20260830023530 | 32 | 256 | 0.0 | 0.0 | 0.00 | 0.00 | 0.00 | 46 | 1014.9 |
| 20260830020527 | 33 | 312 | 0.0 | 0.0 | 0.00 | 0.00 | 0.00 | 44 | 1014.5 |
| 20260830013523 | 34 | 334 | 0.0 | 0.0 | 0.00 | 0.00 | 0.00 | 42 | 1014.2 |
| 20260830010522 | 35 | 279 | 0.0 | 0.0 | 0.00 | 0.00 | 0.00 | 41 | 1013.8 |
| 20260830003520 | 36 | 210 | 1.6 | 1.6 | 0.00 | 0.00 | 0.00 | 39 | 1013.9 |